SCP
2 2 2 2 2 2 2 2 2 2 1 1 1 1 1 1 1 1 1 1 1 1 1 1 1 1 1 1 0 0 0 0 0 0 0 0 0 0 0 0 0 0 0
3 3 3 2 2 2 2 2 2 2 2 1 1 1 1 1 1 1 1 1 1 1 1 1 1 1 1 1 0 0 0 1 1 1 0 0 0 0 0 0 0 0 0
3 3 3 3 2 2 2 2 2 2 2 1 1 1 1 1 1 1 1 1 1 1 1 1 1 1 1 1 0 0 1 1 1 1 1 0 0 0 0 0 0 0 0
3 3 2 2 2 2 2 2 2 2 1 1 1 1 1 1 1 1 1 1 1 1 1 1 1 1 1 1 1 0 1 1 1 1 1 1 0 0 0 0 0 0 0
2 2 2 2 2 2 2 1 1 1 1 1 1 1 1 1 1 1 1 1 1 1 1 1 1 1 1 1 1 1 1 1 1 1 1 1 1 1 0 0 0 0 0
1 1 1 1 1 1 1 1 1 1 1 1 1 0 0 1 1 1 1 1 1 1 1 1 1 1 1 1 1 1 1 1 1 1 1 1 1 1 0 0 0 0 0
1 1 1 1 1 1 1 1 1 1 1 1 0 0 0 0 0 0 1 1 1 1 1 1 1 1 1 1 1 1 1 1 1 1 1 1 1 1 1 0 0 0 0
1 1 1 1 1 1 1 1 1 1 1 1 1 0 0 0 0 0 0 0 0 1 1 1 1 1 1 1 1 0 1 1 1 1 1 1 1 1 1 0 0 0 0
0 1 1 1 1 1 1 1 1 1 1 1 1 1 0 0 0 0 0 0 0 0 1 1 1 1 1 1 1 0 0 1 1 1 1 1 0 0 0 0 0 0 0
0 0 0 1 1 1 1 1 1 1 1 0 1 1 1 1 1 0 0 0 0 0 0 0 1 1 1 1 1 1 0 0 0 1 1 1 0 0 0 0 0 0 0
0 0 0 0 0 0 0 0 0 0 0 0 1 1 1 1 1 0 0 0 0 0 0 0 1 1 1 1 1 1 0 0 0 0 0 0 0 0 0 0 0 0 0
0 0 0 0 0 0 0 0 0 0 0 0 0 1 1 1 1 0 0 0 0 0 0 1 1 1 1 1 1 0 0 0 0 0 0 0 0 0 0 0 0 0 0
0 0 0 0 0 0 0 0 0 0 0 0 0 0 0 1 1 1 0 0 0 0 1 1 1 1 1 1 1 0 0 0 0 0 0 0 0 0 0 0 0 0 0
0 0 0 0 0 0 0 0 0 0 0 0 0 0 0 0 0 1 1 0 0 0 1 1 1 1 1 1 0 0 0 0 0 0 0 0 0 0 0 0 0 0 0
0 0 0 0 0 0 0 0 0 0 0 0 0 0 0 0 0 0 1 1 1 0 0 1 1 1 1 1 0 0 0 0 0 0 0 0 0 0 0 0 0 0 0
0 0 0 0 0 0 0 0 0 0 0 0 0 0 0 0 0 0 0 1 1 1 0 1 1 1 1 1 0 0 0 0 0 0 0 0 0 0 0 0 0 0 0
0 0 0 0 0 0 0 0 0 0 0 0 0 0 0 0 0 0 0 0 1 1 0 1 1 1 1 1 1 0 0 0 0 0 0 0 0 0 0 0 0 0 0
0 0 0 0 0 0 0 0 0 0 0 0 0 0 0 0 0 0 0 0 0 0 0 1 1 1 1 1 1 0 0 0 0 0 0 0 0 0 0 0 0 0 0
0 0 0 0 0 0 0 0 0 0 0 0 0 0 0 0 0 0 0 0 0 0 0 1 1 1 1 1 1 1 0 0 0 0 0 0 0 0 0 0 0 0 0
0 0 0 0 0 0 0 0 0 0 0 0 0 0 0 0 0 0 0 0 0 0 0 0 0 1 1 1 1 1 0 0 0 0 0 0 0 0 0 0 0 0 0
0 0 0 0 0 0 0 0 0 0 0 0 0 0 0 0 0 0 0 0 0 0 0 0 0 0 0 1 1 0 0 0 0 0 0 0 0 0 0 0 0 0 0
0 0 0 0 0 0 0 0 0 0 0 0 0 0 0 0 0 0 0 0 0 0 0 0 0 0 0 0 0 0 0 0 0 0 0 0 0 0 0 0 0 0 0
0 0 0 0 0 0 0 0 0 0 0 0 0 0 0 0 0 0 0 0 0 0 0 0 0 0 0 0 0 0 0 0 0 0 0 0 0 0 0 0 0 0 0
0 0 0 0 0 0 0 0 0 0 0 0 0 0 0 0 0 0 0 0 0 0 0 0 0 0 0 0 0 0 0 0 0 0 0 0 0 0 0 0 0 0 0
0 0 0 0 0 0 0 0 0 0 0 0 0 0 0 0 0 0 0 0 0 0 0 0 0 0 0 0 0 0 0 0 0 0 0 0 0 0 0 0 0 0 0
0 0 0 0 0 0 0 0 0 0 0 0 0 0 0 0 0 0 0 0 0 0 0 0 0 0 0 0 0 0 0 0 0 0 0 0 0 0 0 0 0 0 0
Wind_Speed
3 3 2 2 3 3 5 6 5 6 7 7 7 8 9 8 7 5 4 16 18 17 17 17 17 17 16 16 16 16 16 16 16 15 14 14 13 12 12 12 12 11 11
3 2 3 2 3 3 3 4 6 6 6 5 6 7 7 7 7 6 6 11 17 17 17 17 17 18 18 17 17 17 17 17 16 16 16 15 14 13 13 13 13 12 12
3 3 3 4 4 4 5 4 5 4 5 6 7 7 7 7 6 7 6 5 8 15 17 17 17 18 18 19 19 18 17 17 17 17 17 16 15 14 14 14 14 13 13
3 3 4 5 4 4 4 4 4 4 4 4 4 5 5 5 8 7 5 5 6 8 13 17 17 18 19 19 20 19 18 18 17 18 18 18 17 16 15 15 15 14 14
3 3 3 3 3 3 4 5 4 4 4 4 4 5 5 5 6 7 7 8 8 7 6 12 18 19 20 20 19 19 18 18 18 18 19 19 18 17 17 16 16 15 15
4 3 3 3 4 3 4 4 4 4 4 3 6 5 4 5 4 5 6 7 7 9 9 9 10 14 19 19 18 19 19 19 19 19 19 19 19 18 18 17 17 16 16
3 3 3 3 3 3 4 5 4 5 5 3 3 4 5 6 6 5 5 5 6 7 8 8 8 8 9 17 18 18 19 19 19 19 19 19 19 18 18 18 18 17 17
3 3 2 3 3 3 4 4 4 3 4 4 4 3 3 3 4 7 5 5 5 4 5 8 6 7 6 6 11 17 18 18 18 18 18 18 18 18 18 19 18 18 18
2 3 3 2 3 2 2 3 4 4 4 4 4 4 3 3 2 3 5 5 5 4 4 5 7 8 8 6 7 13 17 16 16 17 17 17 17 17 17 18 18 18 18
3 3 2 2 2 2 2 3 2 3 4 4 3 3 3 0 1 1 2 4 5 5 5 5 6 7 7 5 6 10 14 14 13 14 15 16 16 16 17 17 19 19 19
3 3 2 2 1 2 2 2 2 2 3 4 3 3 4 3 3 2 3 2 3 4 5 4 3 4 6 6 5 9 13 13 12 11 11 12 14 15 16 17 19 19 19
3 3 2 1 1 1 2 2 2 3 3 4 4 3 3 3 3 3 4 4 4 4 5 5 5 5 5 5 7 11 13 12 11 10 10 10 11 12 13 16 18 19 19
3 3 3 2 2 2 2 3 3 3 4 5 5 4 4 4 3 3 4 4 4 3 3 4 4 4 5 5 5 11 12 12 11 10 10 9 9 9 10 11 13 16 17
5 4 3 3 3 3 4 3 3 4 3 3 6 5 4 5 3 4 4 3 3 3 3 4 3 4 4 5 8 11 8 12 11 10 10 9 9 9 9 9 9 10 11
7 5 4 4 5 5 4 4 4 4 4 4 4 5 4 4 4 4 4 4 4 4 4 4 3 4 4 5 10 6 7 10 10 10 9 9 9 9 9 9 9 9 9
8 7 7 7 6 6 6 5 5 5 6 5 4 5 4 4 4 5 5 4 4 3 4 3 3 3 5 7 9 6 6 12 10 9 9 8 8 8 8 8 8 8 8
7 7 7 7 7 7 7 7 7 7 7 6 6 6 6 5 4 4 4 4 4 3 5 3 2 2 3 5 6 5 6 6 6 9 9 8 8 7 7 7 7 7 7
8 8 8 8 8 8 7 8 8 8 7 7 7 6 6 5 6 4 4 5 4 4 4 4 3 2 3 4 6 5 5 5 5 7 9 8 7 7 7 6 6 6 6
8 9 9 9 8 8 8 8 8 8 8 7 7 7 7 6 6 4 4 5 4 4 3 4 4 3 3 4 5 5 4 3 4 6 7 7 6 6 6 5 5 5 5
9 9 9 9 9 9 9 8 8 7 8 7 7 7 6 6 6 6 5 4 4 3 3 3 4 4 4 5 5 5 4 3 4 4 5 6 6 6 5 5 5 5 4
11 9 9 9 8 9 10 9 7 9 7 7 7 7 7 7 7 6 5 5 4 3 3 3 4 3 4 5 5 4 5 4 3 4 5 4 4 3 3 4 4 5 4
10 10 10 10 10 11 11 9 7 7 6 7 7 6 7 7 9 9 9 8 6 5 4 3 3 4 4 5 4 5 5 5 4 4 4 4 3 3 3 3 5 6 6
10 10 10 10 10 10 11 10 8 7 8 7 7 6 8 9 9 8 9 11 10 10 8 5 4 3 3 3 3 4 5 5 3 5 5 4 3 4 4 5 7 7 7
10 9 10 10 9 11 12 11 10 9 9 8 8 7 7 7 7 6 6 7 8 8 9 8 6 5 4 2 2 3 3 3 3 4 4 4 3 4 5 5 7 8 8
10 9 9 10 10 10 11 11 11 7 7 9 8 8 8 8 10 9 6 6 6 6 9 11 9 8 8 6 4 2 3 5 4 4 3 4 5 4 4 4 5 8 9
9 9 9 9 9 9 9 11 12 6 7 7 7 8 11 10 10 11 7 6 6 6 5 6 7 8 8 8 9 7 6 6 5 4 4 5 6 5 4 3 3 4 6
Wind_Direction
227 249 255 232 230 220 206 208 214 216 218 225 224 222 224 222 228 226 187 182 187 189 191 196 202 206 208 209 207 207 206 205 202 200 201 204 203 200 197 196 194 190 187
223 228 243 239 244 249 244 213 213 216 218 220 227 232 233 233 228 223 205 190 193 193 196 201 206 209 211 212 210 209 208 207 204 202 203 204 205 203 200 200 198 195 193
238 237 243 233 229 237 242 238 232 223 219 219 224 230 233 231 230 230 218 189 195 203 202 204 207 211 213 214 213 212 210 207 205 204 204 204 205 204 203 202 201 199 197
279 262 260 249 232 232 235 231 231 238 234 229 229 233 233 223 222 224 219 206 202 209 208 209 212 215 215 215 215 214 211 208 206 205 205 205 205 205 206 206 204 201 199
295 278 271 269 253 243 237 240 223 221 231 231 238 233 235 231 220 221 217 216 209 204 195 205 214 217 216 216 215 214 212 209 209 208 208 208 207 207 207 208 207 203 202
298 292 272 257 256 253 247 238 233 228 228 225 247 249 237 236 220 212 215 220 210 202 202 201 204 217 218 217 215 215 214 211 210 211 210 211 210 209 208 208 208 206 204
299 286 291 289 260 250 252 248 237 232 223 215 234 255 253 232 220 211 208 220 221 210 201 194 189 199 208 216 216 215 215 214 213 212 212 212 211 209 209 209 209 208 207
300 290 304 297 276 255 248 250 235 237 237 212 208 219 234 228 223 213 197 203 220 214 204 199 192 190 195 191 211 214 215 216 216 214 212 211 211 210 209 211 210 209 209
302 287 294 291 291 280 262 258 234 230 239 232 220 219 220 218 199 206 207 204 195 201 204 193 193 191 196 188 190 207 211 212 214 215 214 212 210 209 209 211 211 211 211
286 285 283 290 302 304 300 287 282 251 244 245 239 238 246 310 200 236 233 210 196 200 211 214 201 184 187 188 181 188 198 201 206 211 212 211 210 209 211 212 214 214 213
265 256 240 250 269 279 298 317 325 299 263 260 256 245 239 228 224 216 241 225 212 200 203 210 205 185 187 185 179 179 184 189 194 200 207 211 212 212 213 215 218 218 216
263 260 258 242 257 264 289 297 293 286 281 273 268 257 246 222 213 218 225 222 215 214 201 199 196 187 185 181 189 173 172 177 184 192 201 208 213 214 215 217 220 221 221
291 286 289 278 275 266 260 263 265 262 268 278 276 265 263 253 233 236 238 233 221 212 193 194 190 178 182 155 155 161 168 172 179 189 198 206 211 214 215 218 223 225 226
286 278 271 267 263 264 267 254 263 266 262 262 271 273 268 266 250 243 241 241 238 221 197 199 185 184 178 151 157 161 165 173 178 188 196 202 207 209 211 215 219 224 227
287 288 286 277 266 257 254 252 247 252 253 249 255 267 269 271 262 255 251 239 228 219 219 207 185 185 163 130 154 165 154 172 177 185 192 198 202 205 209 213 217 220 224
280 278 270 264 260 257 253 247 249 247 243 239 234 242 252 264 271 260 255 245 228 217 228 210 196 169 167 157 168 164 150 160 174 185 192 196 199 201 205 207 210 213 218
276 273 270 268 264 256 250 245 245 248 245 244 242 237 235 234 256 270 270 264 248 223 231 229 192 155 156 142 149 153 147 158 171 186 191 194 194 195 197 200 204 207 213
284 278 270 265 262 261 252 245 244 247 244 241 238 236 237 234 231 249 257 260 261 246 221 218 204 175 166 152 154 165 172 173 164 176 180 182 183 185 188 193 198 201 208
286 283 274 268 267 265 261 256 251 247 245 245 242 235 232 226 226 229 240 242 243 254 244 213 209 189 180 177 171 180 178 158 160 153 153 159 167 168 170 176 183 188 195
283 279 277 271 265 263 260 255 251 247 245 245 243 237 232 223 221 216 227 228 227 236 245 224 203 193 191 183 177 175 168 164 163 156 134 133 137 138 143 149 155 159 167
285 282 279 276 270 264 258 252 247 250 243 242 241 236 234 225 222 214 222 215 214 214 224 216 206 203 195 184 184 183 177 157 154 153 139 137 139 134 131 131 131 130 132
286 281 276 274 269 266 264 262 258 257 252 242 240 239 238 227 219 212 212 212 208 208 215 221 212 212 207 199 188 182 171 168 172 163 147 139 135 120 110 99 106 113 116
291 286 281 275 271 264 258 252 251 259 254 241 234 228 242 236 215 210 210 212 216 218 212 213 219 227 234 217 191 185 185 182 174 161 145 133 120 102 90 85 97 104 110
289 284 280 277 274 267 252 237 232 241 252 244 231 221 226 241 238 217 212 214 212 212 210 214 217 223 236 249 222 208 187 161 137 149 142 128 126 109 97 86 84 99 107
290 283 280 275 270 263 244 229 220 232 241 244 234 228 221 228 229 217 215 220 218 217 216 215 208 205 208 220 211 188 178 166 167 165 155 131 133 118 105 95 91 93 98
288 287 282 277 272 262 238 219 212 224 235 239 232 230 229 226 224 211 211 216 223 221 219 205 202 205 205 208 204 197 192 185 171 166 168 142 148 140 126 116 125 123 103